Location: Luna
(33.8188°N, 108.9564°W)
Time: 05:52:56
(UTC+00:00)

Tiangong - Visible Passes

Search period start: 02 December 2022 00:00
Search period end: 12 December 2022 00:00
Orbit: 385 x 394 km, 41.5° (Epoch: 01 December)

Date Brightness Start Highest point End Pass type
(mag) Time Alt. Az. Time Alt. Az. Time Alt. Az.
02 Dec -0.8 01:22:28 10° W 01:25:21 31° NNW 01:26:15 26° NNE visible
03 Dec 0.5 02:02:21 10° NW 02:03:28 16° NW 02:03:28 16° NW visible
04 Dec -0.4 01:04:13 10° WNW 01:06:51 23° N 01:08:25 16° NNE visible
05 Dec 0.0 01:44:04 10° NW 01:45:47 18° NNW 01:45:47 18° NNW visible
06 Dec -0.3 00:46:12 10° NW 00:48:39 20° N 00:50:53 11° NE visible
07 Dec -0.5 01:25:52 10° NW 01:28:27 22° N 01:28:27 22° N visible
08 Dec -0.4 00:28:17 10° NW 00:30:44 20° N 00:33:13 10° NE visible
08 Dec 0.4 02:05:09 10° NW 02:06:10 18° NW 02:06:10 18° NW visible
09 Dec -1.0 01:07:47 10° NW 01:10:39 29° NNE 01:11:41 24° NE visible
10 Dec -1.6 01:47:12 10° WNW 01:49:48 55° NW 01:49:48 55° NW visible
11 Dec -1.8 00:49:55 10° NW 00:53:01 47° NNE 00:55:46 12° E visible
11 Dec 1.0 02:27:12 10° W 02:28:10 16° W 02:28:10 16° W visible
